Wind_Speed
25 24 23 23 22 22 21 20 20 20 18 17 17 16 15 15 15 16 16 15 15 15 15 15 15 15 15 15 15 15 16 17 17 18 18 19 20 20 21 22 23 24 25
26 26 25 24 24 23 23 22 21 20 19 19 18 17 17 16 16 17 17 17 17 17 17 17 18 18 18 17 18 18 18 19 19 20 21 22 23 23 24 24 26 26 27
27 27 27 26 24 24 24 23 21 21 21 21 19 18 18 18 18 18 18 19 19 20 20 20 20 20 20 20 20 21 21 22 22 23 24 24 25 26 27 28 29 30 31
27 28 28 27 25 24 24 24 23 22 21 20 20 20 20 20 20 20 20 20 21 21 22 22 21 21 22 22 23 23 23 24 25 26 27 28 28 30 30 31 32 33 34
27 27 27 27 27 26 24 24 24 22 22 21 21 21 21 21 21 21 21 21 22 22 23 23 23 23 24 24 25 25 26 27 28 28 29 30 31 32 33 34 35 36 37
27 27 27 26 26 25 25 23 23 22 23 23 23 23 22 23 22 23 23 22 23 23 24 24 24 25 26 26 27 28 28 29 29 30 31 33 34 34 35 36 37 39 40
26 25 25 26 24 23 23 23 22 23 24 23 23 24 23 23 24 23 24 24 24 24 25 26 27 27 28 28 29 30 31 32 33 34 35 35 36 37 38 39 40 41 42
23 23 24 23 23 22 21 22 22 22 23 24 24 24 24 24 25 25 26 26 25 26 26 27 28 29 30 31 31 32 33 34 35 36 36 37 38 39 40 41 42 43 44
24 22 20 21 21 21 21 22 23 23 24 25 26 26 26 26 26 26 27 28 28 29 29 29 31 32 33 33 34 34 35 35 36 37 38 39 39 41 42 43 44 45 46
21 21 21 22 21 22 22 23 23 24 24 25 26 27 27 27 27 28 29 29 29 30 31 32 32 33 34 34 35 35 35 36 37 38 39 40 41 42 44 45 46 47 48
22 21 22 22 22 22 23 23 23 24 25 26 27 28 29 29 29 29 29 30 31 31 31 32 32 33 34 35 35 35 36 38 39 39 40 42 43 44 45 46 48 49 50
24 22 21 20 21 21 21 22 23 25 26 27 28 28 29 29 30 29 30 31 30 31 31 32 33 33 34 35 35 36 38 39 40 41 42 43 44 45 46 48 49 50 50
23 23 21 19 20 20 21 22 23 25 25 26 27 28 29 30 30 30 30 29 29 30 31 32 33 35 35 36 37 38 39 40 41 42 43 44 45 46 47 48 48 49 49
21 21 22 21 21 20 21 22 22 23 24 26 27 28 28 29 30 29 28 29 29 30 31 33 33 34 35 36 37 39 40 41 42 42 43 44 45 46 46 47 47 46 45
20 20 21 21 20 20 20 21 22 22 23 24 25 26 27 27 27 27 28 29 29 30 31 32 33 34 36 37 38 39 40 41 42 42 43 44 44 44 44 44 43 42 42
21 21 21 21 20 20 20 19 19 20 21 22 22 23 24 24 24 25 26 27 28 30 31 32 33 35 36 37 38 39 39 40 41 42 42 42 42 41 41 39 39 38 38
22 22 21 20 19 20 20 19 18 18 19 20 20 20 21 23 24 25 25 27 29 30 31 33 34 36 37 37 38 38 39 40 41 41 40 40 39 37 36 35 35 35 35
22 22 21 20 20 20 20 20 19 19 20 20 21 22 23 23 25 25 27 29 30 31 32 33 34 36 36 37 37 38 39 39 38 38 37 36 34 33 33 33 33 32 32
19 20 20 20 20 21 21 21 20 21 21 22 22 23 24 25 27 28 29 30 31 31 32 33 34 35 35 36 37 37 37 36 35 34 33 32 32 31 31 30 30 29 29
19 19 20 20 20 20 20 21 21 22 23 23 24 25 26 27 28 29 30 30 31 32 32 33 34 34 35 35 35 35 34 33 32 30 29 29 29 28 27 27 27 27 28
19 20 20 20 20 20 21 21 22 23 23 24 25 26 27 27 28 28 29 30 31 31 32 32 33 33 33 33 32 32 31 29 28 26 26 26 25 25 25 25 25 25 25
20 20 20 20 21 22 22 23 23 23 23 24 25 26 26 27 28 28 29 30 30 30 31 32 32 32 31 30 29 28 27 26 24 23 23 23 23 23 23 23 23 23 23
19 21 21 22 22 22 23 23 23 23 23 24 25 25 26 27 27 28 28 28 29 30 30 30 29 29 28 27 26 25 24 23 22 22 22 21 21 21 21 21 21 21 20
19 20 20 20 21 21 22 22 21 22 23 24 25 25 26 26 26 27 27 28 28 28 28 27 26 26 25 24 23 22 21 20 20 20 20 20 19 19 18 18 18 18 18
18 19 19 19 19 20 20 21 21 22 23 23 24 24 25 25 25 25 26 26 25 25 25 24 23 23 22 21 20 19 19 19 18 18 18 18 17 17 17 16 16 16 16
17 17 16 16 17 17 18 19 20 20 21 22 22 23 23 23 23 23 23 23 22 22 21 20 20 20 19 18 18 17 17 17 17 17 16 16 15 15 15 14 14 14 14
Wind_Direction
250 253 254 256 256 254 252 252 252 250 250 250 251 252 253 255 258 262 264 269 273 275 277 281 283 285 285 285 286 289 290 291 292 291 288 285 286 286 284 282 280 278 277
250 252 253 255 254 251 251 252 251 248 247 249 251 253 254 256 259 260 262 268 273 276 277 279 281 283 283 282 283 285 288 290 289 289 287 285 284 285 285 283 281 281 280
248 249 250 252 252 250 249 250 250 248 247 246 249 253 254 256 259 262 264 266 271 274 276 279 281 281 281 281 282 284 285 287 288 288 287 285 284 284 284 283 282 281 281
248 249 247 248 250 250 248 248 246 246 246 246 248 253 255 256 261 263 265 268 272 274 275 278 279 281 281 282 283 283 284 285 286 286 286 285 285 284 284 283 282 282 281
248 248 245 245 247 249 247 246 244 245 245 248 251 254 256 258 263 266 269 271 273 274 276 277 278 280 280 282 284 284 285 285 285 285 285 285 285 285 284 283 282 282 281
244 246 244 244 246 244 243 244 243 244 246 249 252 256 258 260 263 265 268 271 273 275 277 277 278 280 282 283 285 285 286 286 286 287 286 285 285 285 285 284 284 283 282
241 243 244 246 243 244 242 243 242 242 245 248 252 255 258 260 262 265 267 270 272 275 277 279 279 281 283 283 284 285 286 287 288 288 288 287 286 286 286 285 285 285 284
242 241 240 241 242 243 242 242 245 247 248 251 254 256 260 262 265 265 267 269 271 276 279 281 280 281 284 285 285 286 287 287 288 289 289 289 288 288 287 287 287 286 286
242 240 239 238 242 244 244 247 249 250 253 254 256 258 260 264 266 266 266 268 271 275 278 281 282 282 284 286 287 288 288 289 290 290 290 290 290 290 289 288 288 287 287
243 237 239 241 244 246 247 249 250 251 255 256 256 257 260 264 267 268 268 270 272 275 278 282 284 285 286 287 287 289 289 290 290 291 291 292 292 292 291 291 291 290 289
247 245 244 245 245 244 247 249 251 253 256 258 256 258 261 263 267 269 270 272 275 277 279 281 284 285 286 288 289 290 291 291 292 293 293 294 294 294 294 293 292 291 290
249 250 252 248 245 245 247 248 251 254 256 257 257 258 260 262 266 268 270 273 275 277 280 282 285 286 287 289 290 291 293 293 294 295 295 295 295 295 295 294 293 292 292
252 251 249 245 246 247 249 253 256 254 256 257 258 260 260 262 264 268 270 274 277 280 283 285 286 288 290 291 292 294 295 296 296 297 297 297 297 297 297 296 295 294 294
249 246 245 247 248 250 252 256 259 255 257 259 259 261 263 264 267 269 270 275 280 282 283 285 288 290 292 294 295 296 296 296 297 298 298 298 298 299 298 297 297 297 297
246 246 248 250 248 249 252 256 257 257 257 258 260 262 262 265 268 271 274 277 280 284 286 288 290 292 294 295 296 296 297 298 298 299 299 299 299 299 299 299 299 299 299
246 248 249 248 246 249 256 260 260 262 261 261 263 266 267 269 272 275 278 281 284 287 290 292 293 295 295 296 297 297 299 299 299 300 300 300 300 300 300 300 300 301 303
244 246 250 250 249 253 256 257 261 262 262 264 268 271 272 272 276 278 281 285 288 289 291 293 294 295 296 296 297 298 299 300 300 301 301 301 301 302 302 302 302 303 305
242 244 248 249 250 255 256 258 260 261 263 267 270 273 275 277 280 282 284 287 289 291 293 294 295 296 297 297 298 299 300 300 300 301 301 301 301 302 303 304 305 306 308
246 247 249 250 253 256 259 260 262 264 267 269 272 274 276 280 283 285 287 290 291 293 294 294 295 296 297 298 299 299 299 300 301 301 301 301 302 303 304 306 307 309 312
247 249 250 251 254 258 261 262 265 267 268 270 273 276 279 282 284 286 289 291 292 293 293 294 296 297 297 298 298 299 300 300 301 300 300 302 304 306 308 309 311 313 315
245 248 250 252 255 258 262 264 266 268 269 272 274 278 280 283 285 287 288 290 291 292 293 295 296 296 297 298 298 299 300 301 301 301 302 305 306 309 310 311 313 316 318
245 247 250 253 256 259 262 265 267 269 271 274 277 280 281 284 286 287 289 290 291 292 294 295 296 296 297 298 298 300 301 302 302 303 304 306 308 309 311 314 317 320 322
246 248 249 252 254 256 260 263 265 269 271 274 278 280 282 284 286 287 289 290 291 293 294 295 295 295 296 297 298 299 300 301 302 304 306 307 308 310 312 315 319 323 326
246 248 247 251 255 258 260 263 266 268 270 274 278 279 281 283 285 288 289 291 292 294 295 296 295 295 296 297 298 298 299 300 301 304 306 308 309 312 314 317 320 324 328
246 247 251 255 258 261 262 262 263 267 271 274 277 279 281 283 286 289 291 292 294 296 297 297 297 297 298 298 298 299 300 301 301 304 306 309 311 314 318 320 323 328 331
247 248 252 257 259 260 263 266 267 270 272 275 278 280 282 285 287 289 292 294 295 296 297 298 299 299 299 299 299 300 303 303 302 304 306 310 313 315 318 321 325 330 335
Height
5864 5866 5867 5868 5869 5870 5870 5871 5872 5873 5874 5875 5876 5877 5877 5878 5878 5878 5878 5878 5878 5878 5878 5877 5877 5876 5875 5874 5874 5873 5872 5871 5870 5869 5868 5867 5866 5866 5864 5864 5863 5862 5861
5859 5860 5862 5863 5864 5865 5866 5867 5867 5869 5870 5871 5872 5873 5873 5874 5874 5874 5874 5875 5874 5874 5874 5874 5873 5872 5872 5871 5870 5869 5868 5867 5866 5865 5864 5863 5862 5861 5860 5859 5858 5857 5856
5853 5855 5856 5857 5858 5859 5860 5862 5863 5864 5865 5866 5867 5868 5869 5870 5870 5870 5870 5871 5870 5870 5870 5869 5869 5868 5868 5867 5866 5865 5864 5863 5862 5860 5859 5858 5857 5856 5854 5853 5852 5851 5849
5848 5848 5850 5852 5852 5853 5855 5856 5858 5860 5861 5861 5863 5864 5865 5865 5866 5866 5866 5866 5866 5865 5865 5865 5864 5864 5863 5862 5861 5860 5859 5858 5857 5855 5854 5853 5851 5850 5848 5847 5845 5844 5842
5841 5842 5844 5846 5847 5848 5850 5851 5853 5854 5856 5857 5858 5859 5860 5860 5861 5861 5862 5862 5861 5861 5860 5860 5859 5859 5858 5857 5856 5855 5853 5852 5851 5849 5848 5846 5845 5843 5841 5839 5838 5836 5834
5835 5836 5838 5839 5841 5843 5845 5846 5848 5849 5850 5852 5853 5854 5855 5855 5856 5856 5856 5856 5856 5856 5855 5854 5854 5853 5852 5852 5850 5849 5847 5846 5844 5843 5841 5839 5837 5835 5833 5831 5829 5827 5824
5828 5830 5832 5834 5836 5838 5840 5841 5842 5844 5845 5846 5847 5848 5849 5850 5851 5851 5851 5851 5851 5850 5849 5849 5848 5847 5846 5845 5844 5842 5841 5839 5837 5835 5833 5831 5829 5827 5824 5822 5819 5817 5814
5822 5824 5825 5827 5830 5832 5834 5836 5837 5838 5839 5841 5842 5843 5844 5845 5844 5845 5845 5845 5845 5844 5844 5843 5842 5841 5839 5838 5837 5835 5833 5831 5829 5827 5825 5822 5820 5817 5815 5812 5809 5806 5803
5816 5818 5820 5822 5824 5826 5828 5830 5832 5833 5834 5835 5836 5838 5838 5839 5839 5839 5839 5839 5839 5838 5837 5836 5835 5833 5832 5831 5829 5827 5825 5823 5821 5818 5816 5813 5810 5807 5805 5801 5798 5795 5792
5810 5812 5814 5816 5818 5820 5822 5824 5826 5827 5828 5829 5830 5831 5832 5833 5833 5833 5832 5832 5832 5832 5831 5829 5828 5826 5824 5823 5821 5819 5817 5815 5812 5809 5806 5803 5800 5797 5794 5790 5787 5783 5779
5805 5807 5809 5811 5812 5814 5816 5817 5819 5820 5822 5823 5823 5824 5825 5826 5826 5826 5825 5825 5825 5824 5823 5822 5820 5819 5817 5815 5813 5811 5808 5806 5803 5799 5796 5793 5789 5786 5782 5778 5774 5770 5766
5800 5802 5803 5805 5807 5808 5810 5811 5812 5814 5815 5816 5817 5817 5818 5818 5819 5819 5818 5818 5817 5817 5816 5814 5812 5811 5809 5807 5805 5802 5799 5796 5793 5790 5786 5782 5778 5774 5770 5766 5761 5757 5752
5794 5796 5798 5800 5801 5803 5804 5805 5806 5807 5808 5809 5810 5811 5811 5811 5812 5812 5811 5810 5810 5809 5808 5806 5805 5803 5801 5798 5796 5793 5790 5786 5783 5779 5775 5771 5767 5763 5758 5753 5749 5744 5739
5787 5789 5792 5794 5795 5797 5798 5799 5800 5801 5802 5802 5803 5803 5804 5804 5805 5804 5804 5804 5803 5802 5801 5799 5797 5795 5792 5789 5787 5784 5780 5777 5773 5769 5765 5760 5756 5751 5746 5741 5737 5732 5727
5782 5784 5786 5788 5790 5791 5792 5793 5794 5794 5795 5796 5796 5797 5797 5797 5797 5797 5797 5797 5796 5794 5793 5791 5789 5786 5784 5781 5778 5774 5771 5767 5763 5758 5754 5749 5745 5740 5735 5730 5726 5721 5716
5777 5779 5780 5782 5784 5785 5786 5787 5787 5788 5789 5789 5790 5790 5790 5790 5791 5791 5790 5789 5788 5787 5785 5783 5780 5778 5775 5772 5768 5765 5761 5757 5752 5748 5744 5739 5734 5729 5725 5720 5716 5711 5706
5770 5772 5774 5776 5778 5779 5780 5781 5782 5782 5783 5783 5784 5784 5784 5784 5784 5784 5783 5782 5780 5779 5777 5775 5772 5769 5766 5763 5759 5755 5751 5747 5742 5738 5733 5729 5725 5720 5716 5712 5707 5703 5698
5764 5766 5768 5770 5771 5773 5774 5775 5776 5776 5777 5778 5778 5778 5778 5778 5777 5777 5776 5774 5773 5771 5769 5766 5763 5760 5757 5753 5750 5746 5742 5737 5733 5728 5724 5720 5716 5712 5708 5704 5700 5695 5690
5758 5760 5762 5764 5765 5767 5768 5769 5770 5770 5771 5771 5772 5772 5771 5771 5770 5769 5768 5767 5765 5762 5760 5757 5754 5751 5748 5744 5741 5737 5733 5728 5724 5720 5716 5712 5709 5705 5701 5697 5693 5688 5684
5753 5755 5756 5758 5759 5761 5762 5763 5763 5764 5764 5765 5765 5765 5764 5764 5763 5761 5760 5758 5756 5754 5751 5748 5745 5742 5739 5735 5732 5728 5724 5720 5716 5712 5709 5705 5702 5698 5695 5691 5687 5682 5678
5747 5749 5750 5752 5753 5754 5755 5756 5757 5757 5757 5757 5758 5757 5757 5756 5755 5753 5752 5750 5747 5745 5742 5739 5737 5733 5730 5727 5723 5719 5716 5713 5709 5706 5702 5699 5696 5693 5689 5685 5681 5677 5673
5741 5742 5744 5746 5747 5748 5749 5750 5750 5750 5750 5751 5751 5750 5749 5748 5747 5745 5743 5741 5739 5737 5734 5731 5728 5725 5722 5719 5715 5712 5709 5706 5703 5700 5697 5694 5691 5687 5684 5680 5677 5673 5669
5735 5737 5738 5740 5741 5742 5743 5744 5744 5744 5744 5744 5744 5743 5742 5740 5739 5737 5735 5733 5731 5728 5726 5723 5720 5717 5714 5711 5708 5706 5703 5700 5698 5695 5692 5689 5686 5683 5680 5676 5673 5669 5665
5730 5731 5732 5733 5735 5736 5736 5737 5737 5737 5737 5737 5736 5736 5735 5733 5731 5729 5727 5725 5723 5720 5718 5715 5712 5709 5707 5704 5702 5700 5697 5695 5693 5690 5688 5685 5682 5679 5676 5673 5670 5666 5663
5724 5726 5727 5728 5729 5730 5730 5730 5731 5730 5730 5730 5729 5728 5727 5726 5724 5722 5720 5718 5715 5713 5710 5708 5705 5703 5701 5698 5696 5694 5692 5690 5688 5686 5684 5681 5678 5675 5673 5670 5667 5663 5660
5719 5720 5721 5722 5723 5724 5724 5724 5724 5724 5723 5723 5722 5721 5720 5718 5717 5715 5713 5711 5709 5707 5704 5702 5700 5698 5695 5693 5691 5690 5688 5686 5684 5682 5680 5677 5675 5672 5670 5667 5664 5661 5658